"Pseudo-MPEC" for CC95WU2

Created 2024 Nov 14 7:31:05 UT using Find_Orb

Click here for an explanation of pseudo-MPECs

 
 Astrometry: 
     CC95WU2*1C2024 11 12.38760307 42 27.954+34 01 01.74   ~BCA2 20.08GVNEOCPG96
     CC95WU2 1C2024 11 12.39272807 42 19.073+34 01 43.36   ~BCA2 20.88GVNEOCPG96
     CC95WU2 1C2024 11 12.39786907 42 10.138+34 02 23.35   ~BCA2 21.52GVNEOCPG96
     CC95WU2 1C2024 11 12.40300807 42 01.235+34 03 03.56   ~BCA2 20.18GVNEOCPG96
     CC95WU2 KB2024 11 12.43813 07 40 55.010+34 07 14.12   ~BCC2 20.8 rZNEOCPH36
     CC95WU2 KB2024 11 12.45512 07 40 25.320+34 09 19.37   ~BCC2 20.4 rZNEOCPH36
     CC95WU2 KB2024 11 12.47319 07 39 53.858+34 11 31.09   ~BCC2 20.5 rZNEOCPH36
     CC95WU2 KC2024 11 12.53064707 38 18.276+34 18 51.98   ~BCDH 21.20GVNEOCPI52
     CC95WU2 KC2024 11 12.53191207 38 16.084+34 19 01.34   ~BCDH 20.74GVNEOCPI52
     CC95WU2 KC2024 11 12.53317607 38 13.927+34 19 09.91   ~BCDH 20.50GVNEOCPI52
     CC95WU2 KC2024 11 12.53444207 38 11.728+34 19 18.88   ~BCDH 20.46GVNEOCPI52
     CC95WU2 KC2024 11 13.36116307 17 24.032+35 43 40.69   ~BD9V 21.23GVNEOCPI52
     CC95WU2 KC2024 11 13.36344507 17 20.558+35 43 53.47   ~BD9V 20.51GVNEOCPI52
     CC95WU2 KC2024 11 13.36573207 17 17.066+35 44 05.89   ~BD9V 20.46GVNEOCPI52
     CC95WU2 KC2024 11 13.36801907 17 13.614+35 44 19.32   ~BD9V 20.35GVNEOCPI52

Station data:
(G96) Mt. Lemmon Survey  (N32.442729 W110.788720)  US/Arizona.  Observer E.
   J. Christensen. 1.5-m reflector + 10K CCD.
(H36) Sandlot Observatory, Scranton  (N38.797718 W95.706550)  US/Kansas.
   Observer G. Hug. 0.56-m reflector + CCD.
(I52) Steward Observatory, Mt. Lemmon Station  (N32.442570 W110.788920)
   US/Arizona.  Observers T. A. Pruyne, B. M. Africano, E. J. Christensen, G.
   A. Farneth, D. C. Fuls, A. R. Gibbs, A. D. Grauer, H. Gröller, J. A.
   Johnson, R. A. Kowalski, S. M. Larson, G. J. Leonard, D. Rankin, R. L.
   Seaman, F. C. Shelly, K. W. Wierzchoś. 1.0-m prime focus + CCD.

Orbital elements:  CC95WU2
   Perihelion 2024 Sep 20.93910 +/- 0.246 TT = 22:32:18 (JD 2460574.43910)
Epoch 2024 Nov 13.0 TT = JDT 2460627.5   Earth MOID: 0.0028   Ma: 0.0418
M  36.79833575 +/- 0.43             (J2000 ecliptic)             AutoNEOCP
n   0.69351136 +/- 0.00499          Peri.  299.00101 +/- 0.19
a   1.26405797 +/- 0.00606          Node    45.87595 +/- 0.022
e   0.3221245 +/- 0.00353           Incl.    3.97821 +/- 0.031
P   1.421/519.088d         H 26.10  G  0.15   U  9.2
q 0.85687387 +/- 0.000423    Q 1.67124207 +/- 0.0125
From 15 observations 2024 Nov. 12-13 (23.5 hr); mean residual 0".49
Residuals in arcseconds: 
241112 G96  1.3-  .24+    241112 H36  .05+  .07-    241112 I52  .13-  .08-    
241112 G96  .37-  .81+    241112 H36  .20-  .55+    241113 I52  .07-  .24+    
241112 G96  .33+  .20-    241112 I52  .25-  .71-    241113 I52  .04-  .11+    
241112 G96  1.4+  .77-    241112 I52  .31-  .12-    241113 I52  .13-  .39-    
241112 H36  .52+  .16+    241112 I52  .02+  .30-    241113 I52  .28+  .16+    

Ephemerides (geocentric):
Date (UTC) HH   RA             Dec           delta  r     elong  mag " sig PA
---- --------  ------------   ------------  ------ ------ -----  --- --------
2024 11 14 08  06 55 34.023   +36 53 34.83  .04029 1.0152 129.2 21.0 13.8 102
2024 11 14 09  06 54 42.522   +36 55 59.51  .04044 1.0154 129.4 21.0 14.6 102
2024 11 14 10  06 53 51.351   +36 58 21.69  .04060 1.0156 129.6 21.0 15.3 102
2024 11 14 11  06 53 00.509   +37 00 41.40  .04076 1.0158 129.9 21.0 16.1 102
2024 11 14 12  06 52 09.994   +37 02 58.68  .04091 1.0160 130.1 21.0 16.9 102
2024 11 14 13  06 51 19.804   +37 05 13.56  .04107 1.0163 130.3 21.0 17.7 102
2024 11 14 14  06 50 29.937   +37 07 26.09  .04123 1.0165 130.5 21.0 18.5 102
2024 11 14 15  06 49 40.391   +37 09 36.29  .04139 1.0167 130.7 21.0 19.3 102
2024 11 14 16  06 48 51.163   +37 11 44.21  .04154 1.0169 130.8 21.0 20.1 101
2024 11 14 17  06 48 02.253   +37 13 49.87  .04170 1.0171 131.0 21.0 21.0 101
2024 11 14 18  06 47 13.657   +37 15 53.31  .04186 1.0173 131.2 21.0 21.8 101
2024 11 14 19  06 46 25.375   +37 17 54.56  .04202 1.0175 131.4 21.0 22.6 101
2024 11 14 20  06 45 37.404   +37 19 53.67  .04218 1.0177 131.6 21.0 23.5 101
2024 11 14 21  06 44 49.741   +37 21 50.65  .04234 1.0179 131.8 21.0 24.4 101
2024 11 14 22  06 44 02.386   +37 23 45.54  .04250 1.0181 132.0 21.0 25.2 101
2024 11 14 23  06 43 15.336   +37 25 38.38  .04266 1.0183 132.2 21.0 26.1 101
2024 11 15 00  06 42 28.589   +37 27 29.19  .04282 1.0185 132.4 21.0 27.0 101
2024 11 15 01  06 41 42.143   +37 29 18.00  .04298 1.0187 132.6 21.0 27.9 101
2024 11 15 02  06 40 55.996   +37 31 04.85  .04315 1.0189 132.8 21.0 28.8 100
2024 11 15 03  06 40 10.146   +37 32 49.76  .04331 1.0191 132.9 21.1 29.7 100
2024 11 15 04  06 39 24.592   +37 34 32.77  .04347 1.0193 133.1 21.1 30.6 100
2024 11 15 05  06 38 39.330   +37 36 13.90  .04363 1.0195 133.3 21.1 31.5 100
2024 11 15 06  06 37 54.360   +37 37 53.19  .04380 1.0197 133.5 21.1 32.5 100
2024 11 15 07  06 37 09.678   +37 39 30.65  .04396 1.0199 133.7 21.1 33.4 100
2024 11 15 08  06 36 25.284   +37 41 06.32  .04412 1.0201 133.8 21.1 34.3 100
2024 11 15 09  06 35 41.175   +37 42 40.22  .04429 1.0203 134.0 21.1 35.3 100
2024 11 15 10  06 34 57.349   +37 44 12.39  .04445 1.0205 134.2 21.1 36.2 100
2024 11 15 11  06 34 13.805   +37 45 42.84  .04462 1.0207 134.4 21.1 37.2 100
2024 11 15 12  06 33 30.539   +37 47 11.61  .04478 1.0209 134.5 21.1 38.1  99
2024 11 15 13  06 32 47.551   +37 48 38.72  .04495 1.0211 134.7 21.1 39.1  99
2024 11 15 14  06 32 04.839   +37 50 04.19  .04511 1.0213 134.9 21.1 40.0  99
2024 11 15 15  06 31 22.399   +37 51 28.05  .04528 1.0215 135.1 21.1 41.0  99
2024 11 15 16  06 30 40.231   +37 52 50.33  .04544 1.0217 135.2 21.1 42.0  99
2024 11 15 17  06 29 58.333   +37 54 11.04  .04561 1.0219 135.4 21.1 42.9  99
2024 11 15 18  06 29 16.702   +37 55 30.22  .04578 1.0222 135.6 21.1 43.9  99
2024 11 15 19  06 28 35.337   +37 56 47.88  .04594 1.0224 135.7 21.1 44.9  99
2024 11 15 20  06 27 54.236   +37 58 04.05  .04611 1.0226 135.9 21.1 45.9  99
2024 11 15 21  06 27 13.396   +37 59 18.76  .04628 1.0228 136.1 21.1 46.8  98
2024 11 15 22  06 26 32.816   +38 00 32.01  .04645 1.0230 136.2 21.1 47.8  98
2024 11 15 23  06 25 52.494   +38 01 43.85  .04661 1.0232 136.4 21.1 48.8  98
2024 11 16 00  06 25 12.428   +38 02 54.28  .04678 1.0234 136.6 21.1 49.8  98
2024 11 16 01  06 24 32.617   +38 04 03.32  .04695 1.0236 136.7 21.1 50.8  98
2024 11 16 02  06 23 53.058   +38 05 11.01  .04712 1.0238 136.9 21.1 51.8  98
2024 11 16 03  06 23 13.749   +38 06 17.36  .04729 1.0240 137.0 21.1 52.8  98
2024 11 16 04  06 22 34.689   +38 07 22.39  .04746 1.0242 137.2 21.1 53.8  98
2024 11 16 05  06 21 55.876   +38 08 26.12  .04763 1.0244 137.4 21.1 54.8  98
2024 11 16 06  06 21 17.308   +38 09 28.57  .04780 1.0246 137.5 21.1 55.8  98
2024 11 16 07  06 20 38.982   +38 10 29.76  .04797 1.0248 137.7 21.2 56.8  98